This is the latest recevied weather packets stored in our database for station/object VR2R-13. If no packets are shown the sender has not sent any weather packets the latest 10 day(s).
| Time | Temp. | Humidity | Pressure | Rain* | Wind** | Luminosity | Snow |
|---|---|---|---|---|---|---|---|
| 1777537365 | 16.67° C | 85% | 914.6 hPa | 0 mm | - | - | - |
| 1777537305 | 16.67° C | 84% | 914.6 hPa | 0 mm | - | - | - |
| 1777537005 | 16.67° C | 84% | 914.6 hPa | 0 mm | - | - | - |
| 1777537004 | 16.67° C | 84% | 914.6 hPa | 0 mm | - | - | - |
| 1777536645 | 16.67° C | 84% | 914.6 hPa | 0 mm | - | - | - |
| 1777536404 | 17.22° C | 83% | 914.6 hPa | 0 mm | - | - | - |
| 1777536285 | 17.22° C | 83% | 914.6 hPa | 0 mm | - | - | - |
| 1777536104 | 17.78° C | 82% | 914.7 hPa | 0 mm | - | - | - |
| 1777535925 | 18.89° C | 82% | 914.6 hPa | 0 mm | - | - | - |
| 1777535565 | 18.89° C | 80% | 914.5 hPa | 0 mm | - | - | - |
| 1777535205 | 18.33° C | 84% | 914.6 hPa | 0 mm | - | - | - |
| 1777534904 | 17.22° C | 83% | 914.7 hPa | 0 mm | - | - | - |
| 1777534845 | 17.78° C | 82% | 914.6 hPa | 0 mm | - | - | - |
| 1777534604 | 18.89° C | 81% | 914.7 hPa | 0 mm | - | - | - |
| 1777534485 | 18.89° C | 81% | 914.6 hPa | 0 mm | - | - | - |
| 1777534303 | 18.33° C | 83% | 914.6 hPa | 0 mm | - | - | - |
| 1777534125 | 18.33° C | 82% | 914.6 hPa | 0 mm | - | - | - |
| 1777534003 | 18.33° C | 80% | 914.6 hPa | 0 mm | - | - | - |
| 1777533765 | 18.89° C | 81% | 914.6 hPa | 0 mm | - | - | - |
| 1777533703 | 18.89° C | 82% | 914.6 hPa | 0 mm | - | - | - |
| 1777533405 | 18.89° C | 82% | 914.7 hPa | 0 mm | - | - | - |
| 1777533403 | 18.89° C | 82% | 914.6 hPa | 0 mm | - | - | - |
| 1777533103 | 18.89° C | 81% | 914.8 hPa | 0 mm | - | - | - |
| 1777533044 | 18.89° C | 82% | 914.8 hPa | 0 mm | - | - | - |
| 1777532804 | 18.89° C | 82% | 914.8 hPa | 0 mm | - | - | - |
* Rain latest hour (hover to see other rain measurements)
** Current wind speed in m/s (hover to see current wind gust speed)